Flag for Norway Weather past 2 weeks in Sandefjord, Norway

Now
54 °F

Cool.


Feels Like: 50 °F
Forecast: 54 / 64 °F
Wind: 12 mph from Southwest

Location: Torp

Current Time: Jul 7, 2015 at 5:11:35 AM

Latest Report: Jul 7, 2015 at 4:50 AM


Visibility: N/A

Pressure: 29.65 "Hg

Humidity: 67%

Dew point: 43 °F

Location of SandefjordLocation

Historic Weather in Sandefjord — Graph

°F

Sandefjord temperature yesterday

Maximum temperature yesterday: 68 °F (at 2:20 PM)
Minimum temperature yesterday: 59 °F (at 11:50 PM)
Average temperature yesterday: 63 °F

Past Weeks' High & Low Weather Summary

 TemperatureHumidityPressure
High73 °F (Jul 1, 2:50 PM)100% (Jun 22, 3:50 AM)30.36 "Hg (Jun 22, 3:50 AM)
Low46 °F (Jun 25, 3:20 AM)39% (Jun 25, 6:50 PM)29.56 "Hg (Jul 6, 1:50 PM)
Average61 °F76%29.96 "Hg
* Reported Jun 22 3:20 AM — Jul 7 3:20 AM, Sandefjord, Weather by CustomWeather, © 2015

Note: Actual official high and low records may vary slightly from our data, if they occured in-between our weather recording intervals... More about our weather records

Advertising

Sandefjord weather history for previous 24 hours

 ConditionsComfort  
Time TempWeatherWind HumidityBarometerVisibility
3:20 AM
Tue, Jul 7
54 °FCool.14 mph67%29.65 "HgN/A
2:50 AM55 °FCool.17 mph63%29.65 "HgN/A
2:20 AM55 °FCool.15 mph63%29.65 "HgN/A
1:50 AM55 °FCool.17 mph63%29.65 "HgN/A
1:20 AM57 °FRefreshingly cool.20 mph59%29.65 "HgN/A
12:50 AM57 °FRefreshingly cool.16 mph59%29.65 "HgN/A
12:20 AM57 °FRefreshingly cool.16 mph59%29.65 "HgN/A
11:50 PM
Mon, Jul 6
59 °FPassing clouds.17 mph59%29.65 "HgN/A
11:20 PM61 °FPartly sunny.13 mph55%29.65 "HgN/A
10:50 PM61 °FScattered clouds.12 mph55%29.65 "HgN/A
10:20 PM63 °FScattered clouds.15 mph52%29.65 "HgN/A
9:50 PM63 °FScattered clouds.14 mph52%29.62 "HgN/A
9:20 PM64 °FScattered clouds.12 mph52%29.65 "HgN/A
8:50 PM64 °FPartly sunny.12 mph49%29.65 "HgN/A
8:20 PM64 °FPartly sunny.13 mph52%29.62 "HgN/A
7:50 PM64 °FScattered showers. Scattered clouds.10 mph56%29.62 "HgN/A
7:20 PM63 °FScattered clouds.12 mph59%29.65 "HgN/A
6:50 PM63 °FScattered clouds.12 mph59%29.65 "HgN/A
6:20 PM63 °FScattered showers. Scattered clouds.10 mph56%29.65 "HgN/A
5:50 PM64 °FScattered clouds.10 mph56%29.65 "HgN/A
5:20 PM64 °FScattered clouds.15 mph52%29.65 "HgN/A
4:50 PM64 °FScattered clouds.16 mph52%29.65 "HgN/A
4:20 PM66 °FScattered clouds.20 mph52%29.62 "HgN/A
3:50 PM66 °FScattered clouds.18 mph56%29.62 "HgN/A
3:20 PM66 °FScattered clouds.14 mph64%29.59 "HgN/A
2:50 PM68 °FPartly sunny.15 mph56%29.59 "HgN/A
2:20 PM68 °FScattered clouds.20 mph60%29.56 "HgN/A
1:50 PM66 °FBroken clouds.21 mph73%29.56 "HgN/A
1:20 PM64 °FBroken clouds.18 mph78%29.59 "HgN/A
12:50 PM64 °FBroken clouds.18 mph78%29.59 "HgN/A
12:20 PM64 °FBroken clouds.21 mph78%29.59 "HgN/A
11:50 AM66 °FBroken clouds.16 mph78%29.59 "HgN/A
11:20 AM64 °FPartly sunny.17 mph83%29.59 "HgN/A
10:50 AM61 °FMostly cloudy.18 mph94%29.62 "HgN/A
10:20 AM63 °FCloudy.15 mph88%29.59 "HgN/A
9:50 AM63 °FCloudy.16 mph94%29.59 "HgN/A
9:20 AM64 °FBroken clouds.15 mph88%29.59 "HgN/A
8:50 AM64 °FBroken clouds.9 mph94%29.59 "Hg5 mi
8:20 AM64 °FMostly cloudy.10 mph94%29.59 "Hg4 mi
7:50 AM64 °FLow clouds.14 mph94%29.59 "Hg3 mi
7:20 AM64 °FFog.16 mph100%29.62 "Hg3 mi
6:50 AM64 °FMostly cloudy.15 mph100%29.62 "Hg3 mi
6:20 AM63 °FFog.5 mph100%29.65 "Hg2 mi
5:50 AM61 °FDrizzle. Fog.5 mph100%29.68 "Hg2 mi
5:20 AM61 °FLight rain. Mostly cloudy.7 mph100%29.68 "Hg2 mi
Weather by CustomWeather, © 2015

See weather overviewHow to use our weather pages